Change the Weather History Date:

Saturday, November 9, 2013

  Actual Average Record
Temperature  
Mean Temperature 54 °F -  
Max Temperature 64 °F 58 °F 82 °F (2002)
Min Temperature 43 °F 41 °F 30 °F (2000)
Degree Days  
Heating Degree Days 12    
Growing Degree Days 4 (Base 50)    
Moisture  
Dew Point 43 °F    
Average Humidity 71    
Maximum Humidity 86    
Minimum Humidity 52    
Precipitation  
Precipitation 0.00 in - - ()
Sea Level Pressure  
Sea Level Pressure 30.09 in    
Wind  
Wind Speed 14 mph (SE)    
Max Wind Speed 22 mph    
Max Gust Speed -    
Visibility 10 miles    
Events      
Averages and records for this station are not official NWS values.
T = Trace of Precipitation, MM = Missing Value Source: NWS Daily Summary

Daily Weather History Graph

Daily Weather History Graph

Search for Another Location

Airport or City:

Trip Planner

Search our weather history database for the weather conditions in past years. The results will help you decide how hot, cold, wet, or windy it might be!

Date:

Astronomy

Nov. 09, 2013 Rise Set
Actual Time 7:06 AM CST 5:34 PM CST
Civil Twilight 6:39 AM CST 6:01 PM CST
Nautical Twilight 6:09 AM CST 6:31 PM CST
Astronomical Twilight 5:39 AM CST 7:01 PM CST
Moon 12:46 PM CST (11/9) No Moon Set
Length of Visible Light 11h 21m
Length of Day
10h 28m
Waxing Crescent, 44% of the Moon is Illuminated
Nov 9
Waxing Crescent
Nov 9
First Quarter
Nov 17
Full
Nov 25
Last Quarter
Dec 2
New

Hourly Weather History & Observations

Time (CST) Temp. Windchill Dew Point Humidity Pressure Visibility Wind Dir Wind Speed Gust Speed Precip Events Conditions
12:53 AM 46.9 °F - 39.9 °F 77% 30.01 in 10.0 mi South 17.3 mph - N/A   Clear
1:53 AM 46.9 °F - 39.9 °F 77% 30.00 in 10.0 mi South 21.9 mph - N/A   Clear
2:53 AM 45.0 °F 36.9 °F 39.0 °F 80% 29.99 in 10.0 mi SSW 20.7 mph - N/A   Clear
3:53 AM 45.0 °F 36.6 °F 37.9 °F 76% 29.97 in 10.0 mi South 21.9 mph - N/A   Clear
4:53 AM 44.1 °F 36.8 °F 37.9 °F 79% 29.99 in 10.0 mi South 16.1 mph - N/A   Clear
5:53 AM 44.1 °F 36.5 °F 39.0 °F 82% 30.01 in 10.0 mi South 17.3 mph - N/A   Clear
6:53 AM 43.0 °F 37.2 °F 37.9 °F 82% 30.04 in 10.0 mi South 10.4 mph - N/A   Clear
7:53 AM 45.0 °F 38.9 °F 39.9 °F 82% 30.06 in 10.0 mi South 12.7 mph - N/A   Clear
8:53 AM 48.9 °F - 41.0 °F 74% 30.08 in 10.0 mi South 13.8 mph - N/A   Clear
9:53 AM 51.1 °F - 41.0 °F 68% 30.10 in 10.0 mi South 10.4 mph - N/A   Clear
10:53 AM 54.0 °F - 43.0 °F 66% 30.10 in 10.0 mi South 6.9 mph - N/A   Clear
11:53 AM 57.0 °F - 44.1 °F 62% 30.09 in 10.0 mi SSE 8.1 mph - N/A   Clear
12:53 PM 60.1 °F - 45.0 °F 57% 30.08 in 10.0 mi SE 9.2 mph - N/A   Clear
1:53 PM 62.1 °F - 46.0 °F 56% 30.07 in 10.0 mi East 6.9 mph - N/A   Clear
2:53 PM 63.0 °F - 46.0 °F 54% 30.08 in 10.0 mi East 11.5 mph - N/A   Clear
3:53 PM 64.0 °F - 46.0 °F 52% 30.09 in 10.0 mi SE 12.7 mph - N/A   Clear
4:53 PM 62.1 °F - 46.0 °F 56% 30.11 in 10.0 mi ESE 8.1 mph - N/A   Clear
5:53 PM 57.0 °F - 46.0 °F 67% 30.14 in 10.0 mi ESE 5.8 mph - N/A   Clear
6:53 PM 55.9 °F - 46.0 °F 69% 30.17 in 10.0 mi East 5.8 mph - N/A   Clear
7:53 PM 55.9 °F - 46.0 °F 69% 30.19 in 10.0 mi East 5.8 mph - N/A   Scattered Clouds
8:53 PM 55.9 °F - 46.9 °F 72% 30.20 in 10.0 mi ENE 5.8 mph - N/A   Overcast
9:53 PM 54.0 °F - 46.0 °F 75% 30.22 in 10.0 mi East 6.9 mph - N/A   Clear
10:53 PM 52.0 °F - 46.0 °F 80% 30.23 in 10.0 mi ESE 5.8 mph - N/A   Clear
11:53 PM 48.9 °F - 45.0 °F 86% 30.23 in 10.0 mi SSE 5.8 mph - N/A   Clear